COSMOS 2491 DEB, 45172

Orbit data source: Space-Track

COSMOS 2491 DEB, 45172 is space debris in LEO originally from a launch on Wed, 25 Dec 2013 UTC launched from the Plesetsk Missile And Space Complex (PKMTR). Debris objects in space refer to the collection of defunct objects orbiting the Earth. Examples of debris include non-operational satellites, rocket bodies, and fragments generated from explosions, collisions, or faulty payload assembly.

Loading next visibility...
Identifier
45172, 2013-076AD
Orbit
LEO
Country
Flag of CISCIS
Related business
Manufacturer
TsNIIKhM
Mission
Spacecraft
Bus & Motor
Unknown
Mass
Unknown
Launch date (UTC)
2013-12-25 (12 years ago)
Launch vehicle
Unknown
Launch site
Plesetsk Missile And Space Complex (PKMTR)
Object type
Payload
Rocket body
Debris
Shape & HBR
Unknown shape, 0.1 m
Radar Cross Section
Small (<0.1 m²)

Expand to show TLE details & history
Last TLE update: 4 days ago

TLE from 4 days ago
0 COSMOS 2491 DEB
1 45172U 13076AD  26123.30521272  .00002707  00000-0  13660-1 0  9995
2 45172  82.4656 139.6333 0093831 238.5177 120.6722 12.68354604288598
Epoch: 2026-05-03T07:19Z
TLE epoch observation values (Epoch: 2026-05-03T07:19:30.379Z)
Latitude
-0.0001°
Longitude
168.54604°
Altitude
1,429.07 km
Speed
7.129 km/s
True Right ascension
09h 18m 31s
True Declination
0° 00' 00"
Sunlit
Object was in daylight at epoch
Visualization orbit readout
Latitude
Unknown
Longitude
Unknown
Altitude
Unknown
Speed
Unknown
Apparent Right ascension
Unknown
Apparent Declination
Unknown
Sunlit
N/A
Visualization observer readout
Local Sidereal Time
16:10:49
Azimuth
Unknown
Elevation
Unknown
Doppler factor
Unknown
Orbital elements
Apogee altitude
1,458.817 km
Perigee altitude
1,313.115 km
Semi-major axis
7,764.103 km
Eccentricity
0.00938
Inclination
82.4656°
RAAN
139.6333°
Arg. of periapsis
238.5177°
True anomaly
121.59146°
Mean anomaly
120.6722°
Eccentric anomaly
121.13238°
Mean motion
3.17253 °/min
Orbital period
113.47 mins
BSTAR
0.01366
Loading maneuver chart data...
Computing Atmospheric mass density...
Loading historical data...
Loading historical data...
Loading historical data...
Loading historical data...
Loading historical data...
Loading historical data...
Loading historical data...

Documentation

Showing up to 5 results
|